Theta_e
308 311 313 316 318 319 318 316 314 314 314 311 311 311 311 313 316 316 321 319 317 336 344 344 340 336 341 343 343 344 347 348 348 346 344 349 347 347 347 346 347 348 348 345 345 338 331 331 330 330 329 328 325 324 324 323 321 320 321 323 323 324 324 325 326 327 329 331 333 335 335 337 338 339 340 340 341 340 339 336 334 335 336 336 336 336 336 337 337 338 338 338 338 338 338 337 335
310 311 311 317 317 318 318 314 314 314 311 308 310 313 312 314 318 325 332 322 327 345 345 344 344 344 345 345 346 347 348 347 346 347 348 347 346 347 346 346 349 349 348 346 345 339 332 331 330 330 329 329 327 325 324 324 324 323 322 322 322 322 325 329 333 333 333 334 335 337 338 339 340 340 340 341 341 341 341 340 338 337 336 334 333 333 335 336 336 337 337 337 337 337 338 336 334
309 309 313 318 316 315 316 313 313 312 309 306 307 312 312 317 323 333 338 328 337 346 342 344 344 344 344 345 347 348 349 346 346 347 347 346 347 347 346 347 349 349 348 346 345 339 334 331 330 331 330 330 328 326 325 325 326 326 325 324 323 324 327 331 333 334 333 333 334 337 339 340 340 340 340 340 340 341 341 341 341 340 339 336 334 332 333 335 336 335 336 337 337 337 337 335 333
308 309 314 318 314 314 317 314 314 312 308 307 307 310 313 319 323 334 345 340 343 343 341 344 345 344 344 348 348 348 350 347 348 347 346 347 347 346 346 347 348 349 348 347 346 341 337 332 330 331 330 330 331 329 327 326 326 327 327 327 327 326 327 329 329 331 332 332 333 336 339 339 339 339 339 339 339 340 340 341 341 341 341 340 337 334 332 334 336 336 336 337 336 336 335 334 334
307 309 313 315 315 315 316 313 314 312 308 309 308 311 314 316 316 325 339 341 342 341 342 345 344 344 345 349 346 347 349 348 348 348 347 347 347 347 346 347 348 348 348 346 346 343 338 332 329 331 331 331 333 332 329 327 327 328 329 329 328 328 327 327 327 328 329 330 330 332 337 338 338 338 338 338 338 339 340 341 340 340 341 339 337 334 331 332 336 336 336 336 336 336 333 333 334
308 310 312 312 313 313 314 311 311 312 311 312 310 313 315 314 313 316 321 327 337 340 342 343 344 346 348 348 346 348 348 348 349 348 348 347 347 347 347 347 347 347 347 346 346 345 338 333 330 330 331 333 334 334 332 331 330 330 331 330 329 328 327 328 327 327 327 327 327 330 334 336 336 336 337 338 338 339 340 340 340 340 340 339 337 335 332 331 335 336 336 336 336 336 334 334 334
310 312 312 313 312 312 314 311 310 312 312 313 313 314 314 313 313 314 314 317 333 341 342 344 344 348 350 347 347 348 348 349 349 349 347 347 347 347 347 347 347 347 347 346 346 345 339 334 331 330 331 333 335 335 334 334 334 333 333 332 330 329 329 329 329 329 329 329 329 330 331 333 333 333 335 338 338 338 339 340 339 339 339 339 338 335 333 331 335 336 336 336 336 336 335 334 333
311 312 311 313 314 312 315 313 312 313 312 312 313 313 315 315 312 313 314 316 331 342 343 344 344 348 350 346 348 348 348 349 349 348 347 347 347 346 346 346 347 346 346 345 344 345 341 335 331 330 331 333 334 335 335 335 334 334 334 333 333 332 332 331 331 331 330 329 329 329 328 328 329 331 335 336 337 338 339 339 339 338 339 340 337 334 333 332 335 336 336 336 336 335 335 334 333
310 311 310 312 315 312 312 312 313 312 312 313 313 314 315 315 313 313 314 315 325 340 346 344 343 346 349 348 349 348 347 349 348 348 347 347 347 346 346 345 346 346 345 344 343 344 342 337 332 330 330 332 334 335 335 335 335 334 334 334 333 333 333 333 332 329 327 326 324 324 324 326 329 331 334 335 336 336 337 337 337 337 338 339 336 332 332 332 333 334 334 334 333 333 333 332 332
311 310 311 313 312 311 311 310 312 311 311 312 312 314 314 313 312 313 314 314 321 338 347 343 343 347 347 349 349 347 347 348 348 347 346 346 346 345 345 345 346 345 345 343 343 343 343 340 334 331 330 331 335 337 336 335 335 334 334 334 334 333 334 334 331 327 324 323 322 323 324 327 329 331 332 333 334 335 335 335 334 335 336 337 335 331 331 331 331 333 333 332 332 332 332 331 332
312 309 310 313 311 311 310 309 311 312 312 312 313 314 313 311 311 312 311 314 325 341 346 344 346 347 347 348 348 347 347 347 347 347 346 345 345 344 344 344 345 345 344 344 344 343 343 342 337 332 330 331 334 336 335 335 335 334 334 334 334 333 333 333 330 326 323 324 324 325 326 328 330 331 331 332 332 333 334 334 334 334 334 335 333 330 329 330 330 332 332 332 331 330 330 329 329
313 311 310 313 312 310 310 310 311 313 314 313 313 313 311 310 310 312 309 318 334 345 345 345 345 346 349 348 347 347 346 347 346 345 346 345 344 343 343 343 343 344 344 344 344 343 343 343 341 336 331 331 332 333 334 335 335 334 334 334 334 333 332 333 330 325 324 326 328 327 327 329 329 329 330 330 331 332 333 333 333 333 333 333 330 326 326 327 329 330 330 331 330 329 327 326 326
312 311 311 312 310 310 310 310 311 314 316 313 313 311 310 310 311 313 316 329 342 346 344 343 343 346 349 349 348 347 345 345 343 344 345 344 343 343 343 343 343 344 344 343 342 342 343 343 342 339 335 332 330 331 334 334 334 334 334 334 334 333 332 333 330 325 326 328 328 328 328 328 328 327 327 328 329 330 331 332 331 331 331 330 326 323 324 326 326 327 327 328 328 328 327 326 326
312 310 312 312 308 311 310 311 311 312 313 312 313 309 311 316 321 326 331 342 346 343 343 342 343 347 350 349 349 348 344 342 342 343 344 343 343 342 342 343 343 344 344 343 342 342 343 342 341 340 338 334 330 332 333 332 333 334 335 333 334 334 332 333 330 324 326 329 328 328 327 327 326 326 327 327 328 328 329 329 330 329 329 328 324 321 324 326 326 326 326 326 327 327 327 326 325
311 309 312 313 309 310 310 311 311 310 312 313 311 309 317 324 328 337 340 343 345 340 342 344 342 343 348 349 349 348 344 341 341 342 343 342 341 341 342 342 343 343 343 342 341 342 342 342 341 341 340 337 333 332 332 332 333 334 334 333 334 334 332 334 331 324 327 329 328 329 328 327 327 327 326 327 327 327 328 329 329 328 328 327 324 321 323 326 327 327 326 326 327 327 327 325 325
310 309 312 313 310 309 310 310 310 311 312 312 311 308 317 327 332 339 337 337 343 341 341 343 341 340 342 344 347 347 343 341 341 341 342 341 340 341 341 341 342 342 342 342 342 342 340 341 340 341 341 338 335 334 334 334 334 335 335 333 334 334 332 334 331 325 328 329 328 329 328 328 328 327 327 327 326 327 327 328 328 328 328 328 326 323 323 326 327 327 327 326 326 326 326 325 326
308 311 313 312 310 309 310 311 310 311 313 312 311 309 311 325 335 339 336 338 344 343 340 341 341 341 341 344 347 345 342 340 340 340 340 339 340 340 340 340 341 341 341 342 342 341 340 341 341 340 341 338 337 337 337 336 336 337 336 334 335 334 333 334 331 325 328 330 329 329 329 330 330 328 328 327 327 327 326 327 327 328 328 328 328 327 325 326 327 328 327 326 326 327 327 325 327
310 313 312 311 310 310 311 312 311 311 313 312 310 311 309 318 336 338 337 343 343 342 341 341 343 344 345 347 346 343 340 339 339 339 339 339 339 339 339 338 338 339 340 341 340 340 340 341 340 340 340 339 338 338 338 338 337 338 336 335 335 334 334 334 330 326 328 331 330 331 331 332 331 330 330 329 328 328 327 327 327 327 328 328 328 329 328 327 327 327 326 326 326 326 326 326 327
312 313 311 311 311 311 312 312 311 311 312 312 309 310 308 313 329 334 336 344 343 342 342 342 346 345 345 346 344 342 340 339 338 338 338 338 337 337 337 337 337 337 338 339 339 340 339 339 339 339 340 338 339 338 337 338 338 337 336 336 336 335 335 333 330 327 329 331 331 332 332 332 332 332 331 330 329 329 329 328 327 327 327 327 327 328 328 328 327 327 326 325 326 326 327 327 328
311 311 312 311 311 311 312 310 311 311 309 312 311 309 310 310 319 330 337 343 343 342 342 343 347 346 346 344 343 343 340 339 338 338 338 337 336 336 336 336 336 336 338 336 334 337 337 337 339 339 339 339 338 337 337 338 339 338 336 337 337 336 335 334 332 329 329 330 331 333 333 334 334 333 333 332 331 330 329 329 329 327 327 327 327 327 328 329 329 328 327 326 326 326 328 328 328
310 310 313 311 309 310 311 310 311 310 309 310 310 310 312 309 315 329 338 341 341 341 341 341 345 346 347 344 343 343 341 340 339 338 338 336 335 335 335 336 336 336 337 333 330 336 337 337 339 339 339 338 338 337 338 338 339 338 338 338 337 336 336 335 334 331 329 330 331 333 334 335 336 335 335 334 333 331 331 331 330 328 328 327 327 327 328 328 328 328 328 327 327 327 327 328 327
310 310 312 310 308 310 312 311 310 309 309 309 310 311 310 312 321 334 338 334 333 335 335 337 342 344 345 344 343 343 342 341 341 339 337 336 335 335 335 335 335 335 337 333 330 335 337 337 340 339 338 337 338 337 337 338 339 339 339 338 337 336 336 336 335 332 329 330 332 334 334 336 337 337 337 336 335 333 333 332 331 329 328 327 327 327 327 326 328 328 328 328 328 327 326 327 327
311 310 309 309 308 310 311 311 310 309 309 310 310 309 308 311 317 330 337 331 326 328 327 334 343 343 345 345 344 343 341 341 341 339 337 336 336 335 335 335 335 334 337 335 332 334 335 337 338 338 338 337 338 338 337 338 338 338 338 338 337 337 337 336 335 332 330 330 332 335 335 336 337 336 336 336 336 334 334 334 333 332 328 326 326 327 326 326 327 328 328 328 327 326 326 327 327
310 311 310 310 308 309 310 310 309 309 309 309 309 307 310 310 309 322 335 330 328 332 331 337 344 344 345 344 343 343 342 341 341 339 337 336 336 335 334 335 335 334 336 337 332 331 333 336 337 336 337 338 338 338 338 338 337 337 337 337 337 337 336 335 333 331 331 332 333 335 335 336 336 335 336 336 336 335 335 334 333 333 330 326 325 326 327 327 328 327 327 328 327 326 327 328 327
309 311 311 309 308 309 309 308 309 309 307 307 307 308 309 309 311 319 325 327 334 338 338 341 343 344 343 343 344 344 342 342 341 338 337 336 336 336 334 335 334 334 336 336 332 332 335 336 336 336 337 337 337 337 338 339 337 337 337 337 337 337 334 332 333 332 332 333 333 335 335 335 334 335 335 336 335 334 334 333 332 333 331 328 325 325 328 330 329 328 327 328 327 327 329 329 328
310 311 310 309 309 309 309 308 310 309 307 307 308 311 309 307 312 315 320 332 338 339 341 342 342 343 343 343 344 344 342 341 341 339 337 336 336 335 334 334 334 334 335 335 334 335 337 337 336 336 337 335 335 338 338 338 338 337 337 338 338 337 336 333 332 333 332 333 334 336 336 336 336 336 336 336 335 335 334 333 333 333 333 331 327 326 328 330 330 329 329 328 327 328 330 329 328
309 310 310 309 309 308 308 309 310 308 308 308 309 312 309 308 312 312 328 338 339 340 342 342 343 343 343 343 344 345 343 341 341 339 337 336 336 335 334 334 334 334 333 334 336 337 336 337 336 336 335 333 334 337 336 337 337 337 337 338 337 337 337 334 331 331 333 335 335 334 332 333 336 336 336 334 333 335 335 333 334 335 335 332 329 328 329 330 331 330 329 329 328 330 330 329 328
308 309 309 310 309 308 308 309 309 308 309 309 308 310 308 309 311 312 331 339 340 341 342 342 343 343 343 344 344 344 343 340 340 339 338 336 335 335 335 334 335 336 334 334 337 337 336 336 336 333 330 330 332 333 334 335 336 337 337 337 337 337 336 333 330 331 333 336 335 333 332 333 334 333 333 332 332 333 334 333 335 336 335 333 330 330 330 331 332 330 329 328 329 331 331 329 328
308 309 310 311 310 310 310 309 308 308 310 308 307 310 309 311 311 316 332 340 341 341 342 342 343 343 343 344 343 344 342 340 339 339 338 336 335 335 335 336 336 337 336 336 337 336 336 336 335 331 328 328 329 330 332 335 335 336 337 337 336 337 335 333 333 334 336 337 334 334 335 334 334 334 334 334 333 333 332 331 335 337 335 333 331 330 331 331 332 331 329 329 330 331 331 330 328
309 309 309 311 310 310 310 307 307 308 310 308 308 309 310 312 310 318 333 341 341 342 342 342 343 343 343 343 343 344 342 339 338 339 338 335 334 334 335 337 337 338 337 337 337 335 336 336 333 329 327 328 328 330 332 333 334 335 337 337 336 336 335 335 337 338 338 337 336 336 336 335 335 336 335 335 334 333 332 331 332 336 334 334 332 331 332 332 332 332 330 331 331 331 331 330 329
309 308 308 310 309 309 309 308 308 309 308 307 309 309 309 314 309 314 333 341 341 343 342 342 343 343 343 343 342 343 341 340 339 338 337 335 334 335 335 336 337 338 337 338 336 334 335 335 333 329 328 329 329 331 332 334 337 337 338 337 337 337 337 338 339 339 337 336 336 335 335 334 335 335 335 335 334 333 333 331 331 334 333 333 334 333 333 334 333 332 331 331 330 330 331 330 329
309 309 310 310 308 309 311 310 310 310 309 307 310 310 309 315 310 310 330 343 340 342 342 341 343 342 342 342 342 343 340 339 339 337 336 335 335 336 336 336 338 338 338 337 336 335 334 334 335 334 332 331 332 332 334 337 339 339 340 339 338 338 338 338 336 335 334 333 333 332 332 333 334 335 334 334 334 334 334 333 332 333 332 333 334 334 334 334 333 332 331 332 331 330 331 330 330
309 309 311 311 309 310 311 311 310 309 310 308 309 310 310 314 309 309 329 342 340 342 342 341 343 342 341 341 341 342 339 337 337 337 336 335 335 336 336 337 338 338 337 337 336 335 336 334 333 335 336 334 334 335 338 340 340 340 340 339 339 338 337 335 332 331 331 331 332 331 331 332 333 333 334 334 334 334 333 333 332 331 332 333 334 334 334 334 333 332 331 331 331 331 331 331 329
310 310 312 312 311 311 311 312 310 307 309 310 310 310 311 312 311 316 334 341 340 342 342 341 343 342 341 341 340 340 339 336 336 338 337 336 337 336 337 337 337 338 337 336 334 333 336 335 333 335 338 336 336 339 340 341 340 340 339 339 338 336 333 331 330 332 332 332 332 332 332 332 332 333 333 334 334 333 333 332 331 331 332 332 333 333 333 333 332 331 330 330 330 330 331 330 329
311 312 312 311 311 311 311 313 311 308 310 311 310 310 312 312 310 321 338 340 340 343 341 342 342 341 341 340 340 340 339 338 337 338 337 336 337 336 337 336 335 337 336 335 333 330 333 333 333 336 339 338 338 340 340 340 339 338 339 338 336 333 330 329 330 331 331 331 330 331 331 332 332 333 332 333 333 333 333 332 331 331 332 332 332 332 331 332 331 330 330 330 329 329 330 330 329
311 312 311 312 311 311 312 312 310 310 312 312 312 311 312 314 308 318 337 341 340 342 340 342 342 340 341 339 340 339 338 339 338 337 336 336 337 337 337 335 334 335 335 334 332 328 331 333 334 337 339 339 339 340 339 338 338 338 337 336 333 330 328 329 329 328 329 329 329 330 331 332 332 332 332 332 332 333 332 331 331 331 332 333 333 333 331 331 331 331 330 329 329 330 329 330 329
312 311 311 311 311 312 312 312 310 310 314 313 313 313 311 314 310 315 334 341 340 341 341 341 342 341 340 339 339 339 338 338 337 335 335 336 337 337 337 336 335 334 334 334 332 332 334 334 335 338 339 339 339 338 337 337 338 336 335 333 331 328 329 329 327 326 327 329 330 330 330 331 331 331 331 331 331 332 331 330 331 332 332 333 333 333 331 330 330 330 330 329 329 329 329 328 328
313 311 311 312 311 313 313 312 310 310 314 314 312 312 310 312 311 313 331 343 340 341 343 341 341 340 340 339 338 339 338 336 334 335 335 336 336 336 335 334 334 334 334 335 334 333 334 336 336 338 339 338 338 336 333 335 336 335 333 331 328 328 329 328 326 325 327 328 330 330 330 330 330 330 330 330 330 331 330 331 331 331 332 332 331 331 331 330 330 329 328 328 328 329 329 328 327
314 312 312 314 311 312 313 312 312 311 312 313 311 311 311 313 312 312 327 342 340 340 342 341 341 340 340 339 338 338 338 335 334 334 335 336 336 335 334 332 333 333 334 335 334 332 334 336 337 337 337 337 337 335 332 332 333 332 331 328 327 328 328 327 325 325 326 327 328 329 329 329 330 330 329 329 329 330 330 330 330 330 332 331 331 331 330 331 330 328 327 327 327 328 328 327 327
314 313 312 313 312 310 312 313 314 313 313 313 311 312 313 314 314 313 320 330 331 334 338 338 339 340 339 338 337 338 338 336 335 334 334 336 336 335 334 333 333 332 331 332 333 332 332 335 337 337 336 336 336 333 331 331 330 330 329 327 327 327 328 327 326 325 326 327 328 327 328 327 328 328 328 328 329 329 330 330 330 331 331 330 330 330 330 330 329 328 327 326 326 328 328 327 327
315 316 313 312 313 311 312 313 316 316 315 315 313 312 313 315 316 314 315 321 326 331 336 338 338 339 338 337 337 337 338 337 335 334 334 335 336 336 334 334 333 332 331 331 331 331 333 335 336 337 336 336 334 330 330 330 329 329 328 328 328 327 327 328 326 325 324 325 326 326 326 325 325 324 324 326 327 327 327 328 328 329 329 329 329 329 329 329 329 328 327 326 326 328 329 328 328
314 317 315 314 314 314 314 315 316 315 314 315 313 311 312 315 317 315 314 319 326 329 334 338 338 338 338 337 338 337 337 337 335 334 334 335 336 336 335 334 332 332 332 332 332 332 333 335 336 336 337 335 331 329 329 329 328 328 327 328 328 328 328 328 326 324 322 322 322 322 322 322 322 321 321 322 324 324 324 324 326 326 328 328 328 328 328 329 329 329 328 327 327 328 328 328 327
312 317 318 314 312 315 317 316 315 313 313 316 315 311 312 314 315 314 313 317 324 326 331 336 337 338 338 338 338 337 336 335 334 334 333 334 335 335 336 335 332 331 332 333 333 333 334 335 335 336 336 333 329 328 328 327 327 326 326 326 327 327 326 326 324 322 321 320 320 320 320 319 319 319 319 321 322 322 321 322 323 325 326 327 328 327 328 329 329 328 328 328 328 327 327 328 327
314 318 317 312 311 314 318 318 315 313 315 316 316 313 312 313 314 315 314 317 321 323 327 332 334 337 337 338 337 336 337 335 333 333 332 333 334 334 335 335 333 332 333 333 333 333 334 333 334 335 334 331 328 327 326 325 325 325 324 326 326 325 323 323 322 320 320 319 319 319 318 318 318 318 318 320 322 321 320 319 320 323 324 325 327 328 327 328 327 328 327 327 327 327 327 328 327
315 315 313 311 312 315 318 316 314 316 316 313 315 315 313 313 314 315 314 317 320 321 323 327 331 335 335 336 336 335 335 334 333 333 332 333 334 334 334 334 333 333 333 332 332 332 332 331 331 331 331 329 327 326 325 324 324 324 324 325 326 324 321 321 320 319 319 319 319 318 318 318 317 318 317 318 322 321 319 317 318 322 324 325 326 327 327 327 328 328 327 327 327 326 327 328 327
313 310 310 311 312 315 317 315 314 317 315 312 315 316 313 312 314 315 314 316 318 320 321 321 325 330 333 334 334 334 334 332 332 331 332 333 333 332 332 332 331 328 328 328 328 329 329 328 328 328 328 327 326 324 323 323 324 323 322 324 325 322 321 320 319 319 318 318 318 318 317 318 317 318 317 317 320 320 318 317 318 322 325 324 325 325 326 327 327 327 327 327 327 326 326 328 328
310 310 311 311 313 316 317 316 315 315 313 312 315 316 315 312 314 315 315 315 315 316 318 318 318 323 329 332 332 332 332 331 330 329 330 332 330 329 329 330 327 325 324 325 324 324 325 324 325 325 325 325 324 323 322 322 323 322 321 323 323 322 321 320 319 318 318 318 318 317 317 317 317 317 317 317 318 318 317 318 319 322 323 323 323 324 324 324 325 325 325 326 326 327 327 327 327
309 313 313 312 314 316 315 315 315 314 314 314 313 315 316 312 313 315 315 315 313 313 316 316 315 316 321 327 330 330 330 330 329 327 327 328 328 328 327 327 326 324 324 324 323 323 323 322 321 322 323 323 322 321 322 322 322 321 321 322 323 322 321 320 318 317 316 317 317 317 317 317 316 316 316 316 317 317 317 316 318 320 321 321 322 322 321 322 322 322 323 324 325 326 326 327 327
310 313 313 312 313 314 313 314 314 314 314 314 313 314 314 313 314 314 315 316 314 314 315 315 315 315 315 318 324 327 328 328 327 326 326 326 326 327 327 326 326 325 324 324 324 325 325 323 322 321 321 321 321 320 321 321 321 322 322 322 323 322 320 319 318 315 314 315 316 316 316 315 315 315 316 316 316 316 316 316 318 320 320 320 320 320 319 321 320 318 319 320 322 323 324 324 324
311 312 313 313 312 313 313 313 313 314 315 314 313 313 313 313 314 314 314 315 316 316 317 318 318 318 317 314 317 324 326 326 326 324 324 324 325 327 327 327 326 325 325 325 325 326 326 325 324 322 321 320 319 319 320 321 320 321 321 322 322 321 320 319 316 314 313 314 315 315 315 315 315 315 316 316 315 315 316 317 319 319 319 319 319 319 319 320 318 315 315 316 316 317 318 318 317
310 310 311 312 313 313 312 313 314 314 316 314 312 313 314 314 314 313 313 314 317 319 320 320 320 320 318 315 317 323 324 323 324 323 323 324 327 327 326 325 324 324 325 325 326 327 326 326 326 324 322 321 320 318 318 319 319 320 321 322 321 320 320 317 315 314 314 314 315 315 315 314 314 315 316 315 313 313 314 316 318 318 318 317 316 317 317 316 315 315 314 312 311 312 312 311 311
308 308 311 312 313 315 313 312 314 315 315 316 313 313 313 314 312 311 314 317 319 319 320 322 322 321 321 319 321 323 323 322 323 323 324 326 328 328 325 325 324 323 324 324 325 327 327 327 326 325 323 321 319 318 317 319 319 320 321 321 320 319 318 316 315 315 315 315 315 315 315 315 314 314 313 312 311 311 311 315 317 316 316 315 314 314 314 313 313 313 310 308 308 308 307 306 304
309 308 311 310 311 317 316 311 311 313 315 315 313 313 313 313 312 311 314 318 317 316 317 321 322 322 322 323 322 323 323 323 324 324 325 327 329 328 324 325 326 324 324 323 325 326 327 328 327 324 322 320 320 319 318 318 319 320 320 320 319 317 316 316 315 315 314 314 316 316 315 315 314 313 312 311 311 309 308 311 312 311 311 310 309 310 310 311 310 308 306 305 306 305 303 302 300
310 309 311 309 309 314 316 313 311 312 315 314 311 312 314 313 314 313 314 315 315 313 314 319 323 322 323 323 323 323 324 325 324 324 325 326 329 327 323 323 323 322 322 322 323 324 325 327 326 324 322 321 320 319 318 318 318 319 320 319 318 317 316 316 316 316 313 312 314 316 316 315 313 313 312 311 311 309 307 308 308 308 306 303 302 303 305 306 305 303 303 304 304 303 301 301 301
308 309 309 309 311 313 313 313 314 312 313 313 311 312 313 312 314 314 314 314 314 314 313 317 321 321 321 322 323 323 323 323 323 322 321 323 325 325 323 322 322 321 321 321 322 322 323 325 324 323 323 322 319 318 317 317 318 319 321 319 318 317 315 313 313 314 312 310 313 316 316 314 312 311 312 312 311 309 308 308 308 307 305 302 301 300 301 301 301 301 302 303 303 303 303 304 304
307 308 307 308 311 313 312 313 314 314 312 311 312 313 313 313 312 313 314 314 313 314 313 315 319 321 321 321 321 321 321 321 320 320 320 321 322 323 322 322 322 322 322 321 321 321 322 324 324 323 322 320 318 318 317 317 318 319 320 319 317 316 313 310 311 312 312 313 315 316 316 314 311 309 310 311 311 310 309 309 309 308 307 306 305 302 300 301 302 302 302 302 303 303 304 305 305
309 310 309 310 310 309 311 312 310 311 312 311 312 313 313 313 310 311 313 312 312 313 312 314 318 320 319 319 319 320 320 320 319 320 320 321 323 323 322 321 321 321 322 321 321 321 323 324 323 323 322 320 319 318 318 318 319 319 319 318 317 317 313 312 312 312 313 316 317 316 316 315 312 309 308 309 310 310 310 310 310 309 310 310 309 306 304 304 305 306 305 305 303 303 304 304 305
309 311 311 311 310 310 311 311 308 309 311 311 312 313 314 312 309 310 310 310 312 312 311 314 318 320 319 318 318 318 318 318 318 318 317 319 321 322 322 322 322 322 322 321 322 323 323 323 323 322 321 320 319 319 318 318 318 318 319 319 318 316 315 313 313 312 314 316 316 316 317 316 314 310 308 308 308 309 310 311 311 310 310 311 311 310 307 306 307 308 309 309 307 306 305 305 305
Wind_Speed
7 7 6 6 6 7 5 1 1 1 1 2 2 1 1 2 1 3 4 3 2 0 0 1 3 4 3 1 5 5 5 4 4 2 1 2 9 19 20 23 30 27 26 27 25 26 26 25 24 24 25 25 26 25 25 25 25 25 26 26 26 26 26 25 24 23 23 22 21 20 19 18 16 16 15 15 14 14 15 17 18 18 18 18 18 17 17 16 15 15 14 14 13 13 13 12 12
7 6 5 6 6 5 2 1 1 1 2 2 3 2 1 2 0 3 5 3 1 2 2 4 5 5 4 4 6 6 5 4 3 2 2 9 15 16 20 26 28 26 27 26 26 28 27 26 25 25 25 26 26 26 25 24 24 25 25 25 25 25 25 24 23 22 22 21 20 18 17 17 16 16 15 15 14 14 14 15 17 17 17 17 18 17 17 16 15 14 14 15 14 13 13 12 12
7 6 7 9 5 1 1 0 1 2 3 4 3 2 2 3 1 4 3 2 5 3 2 2 4 4 3 3 3 1 3 3 4 4 5 13 15 13 21 25 26 26 26 25 25 27 28 26 26 26 26 26 26 26 25 24 24 23 24 23 23 23 23 22 22 21 21 19 18 17 16 16 15 15 15 15 14 14 13 14 15 15 16 16 17 16 16 17 16 15 14 14 14 13 13 13 14
7 6 9 7 2 1 2 1 1 2 4 3 2 2 3 4 4 3 4 5 5 1 1 2 2 2 2 3 2 2 4 3 4 5 6 12 13 16 22 24 25 24 25 24 23 27 27 26 27 26 27 26 26 25 25 24 23 23 23 22 22 22 21 21 21 21 20 18 17 17 16 15 15 15 15 15 14 14 13 13 14 14 15 15 15 15 16 16 16 16 14 14 14 14 13 14 15
6 6 8 4 1 1 2 1 1 3 4 3 1 1 4 5 4 3 4 4 4 1 2 2 2 2 3 4 2 1 4 4 5 6 8 12 13 18 22 23 24 22 23 23 22 25 27 27 27 26 26 26 26 25 25 24 23 22 21 21 21 21 21 20 20 19 18 18 17 16 16 15 14 14 14 15 15 15 14 14 14 14 14 15 15 14 15 16 16 16 15 14 14 14 14 15 15
7 6 4 2 0 0 1 2 2 5 4 2 1 2 4 3 2 2 1 4 4 2 1 2 3 4 4 4 2 2 1 2 6 7 10 14 16 18 22 23 23 22 22 22 21 23 27 27 26 26 26 26 26 25 25 24 22 21 20 20 20 20 20 19 19 18 17 17 16 16 15 14 13 13 14 15 15 15 15 15 14 13 14 15 14 13 14 15 16 15 14 14 14 14 15 15 14
8 5 2 2 1 1 2 3 4 5 3 3 2 1 2 1 1 3 4 5 3 4 2 2 6 6 4 2 2 3 2 2 5 8 12 16 18 18 21 22 22 22 21 21 20 22 28 27 26 26 26 26 26 25 25 23 22 22 21 20 19 19 18 17 17 17 17 16 15 14 13 12 12 12 12 13 13 14 15 14 13 13 14 14 13 12 12 13 15 15 13 14 14 14 14 13 12
6 3 0 2 2 1 2 3 4 3 1 2 4 4 2 1 3 4 5 3 1 2 3 5 6 5 3 2 2 3 3 2 8 12 15 17 18 19 20 21 22 22 20 21 20 22 26 26 26 26 25 25 25 24 24 23 22 22 21 20 19 18 17 16 16 15 15 14 14 13 12 12 11 11 11 12 12 12 13 12 11 12 13 13 13 12 11 11 14 14 12 12 12 13 12 11 11
3 1 0 1 2 0 1 2 3 2 3 5 5 6 4 2 5 5 6 6 2 3 5 6 4 3 5 4 3 4 4 8 14 15 16 18 18 19 20 21 22 21 20 21 21 22 24 26 26 25 25 24 23 23 23 22 21 21 20 20 18 17 16 16 15 15 14 14 13 12 12 11 11 11 11 11 11 11 11 10 10 11 11 12 13 12 10 10 11 13 12 12 12 11 11 10 10
2 1 1 1 2 2 2 2 1 2 3 5 6 8 6 2 5 7 8 7 5 6 6 5 1 4 7 5 3 3 5 12 16 16 17 18 18 18 20 20 20 21 20 21 22 22 23 24 25 24 24 22 23 23 22 20 18 18 18 18 17 16 15 14 14 14 14 13 13 12 12 12 11 11 11 11 11 11 10 9 9 9 10 11 12 11 10 10 11 12 12 12 12 11 11 10 9
1 1 1 1 2 3 3 3 2 2 3 4 5 6 4 3 4 6 8 6 5 8 7 4 4 7 7 4 2 3 8 13 15 17 17 18 18 18 19 19 19 19 20 20 21 22 23 23 24 24 23 22 22 21 22 20 18 17 16 16 16 15 14 13 13 13 13 13 12 12 11 11 11 11 11 11 10 10 9 9 8 9 9 9 9 9 9 10 11 11 11 11 11 12 11 9 8
2 1 1 2 3 3 2 2 2 3 4 3 3 1 2 3 5 5 9 7 6 9 8 5 6 8 6 4 3 5 10 13 14 16 16 16 17 18 18 17 17 18 20 20 20 22 23 23 22 22 22 22 21 20 21 21 19 16 15 15 16 15 13 12 12 11 12 12 11 11 11 11 11 11 11 10 10 9 9 8 8 8 7 7 7 8 9 10 10 9 9 9 9 10 11 10 9
1 2 2 2 1 1 1 1 1 3 2 1 1 4 5 1 3 5 7 7 7 9 6 4 8 6 4 4 4 7 10 12 15 15 16 17 18 17 17 17 17 17 18 20 20 21 23 23 22 22 22 23 22 21 20 21 19 16 15 14 14 14 13 12 11 11 11 11 11 10 10 10 10 10 10 10 10 9 9 8 7 7 7 7 7 8 10 9 9 8 7 6 6 7 10 10 10
1 1 2 2 0 1 2 1 1 2 1 2 1 5 5 2 2 2 6 9 8 4 2 5 7 4 4 5 3 5 9 13 17 16 16 18 18 17 17 17 17 17 17 18 19 20 21 22 22 23 23 24 24 22 20 20 19 17 16 14 13 13 13 12 11 11 12 11 11 10 9 9 10 10 10 9 9 9 9 8 7 7 7 7 8 9 10 10 10 9 8 7 5 6 7 10 11
2 1 1 1 1 1 2 1 1 3 1 2 1 4 3 2 2 3 4 5 6 1 3 6 3 1 5 6 4 7 12 17 18 16 18 18 18 17 17 17 16 16 16 17 18 18 19 19 21 22 22 23 24 23 21 19 19 19 17 14 13 13 12 12 11 11 12 12 11 10 9 9 9 9 9 9 8 8 8 8 7 7 7 8 8 9 11 10 9 9 8 7 6 5 6 9 11
1 1 1 1 2 2 3 2 2 2 2 1 1 4 2 3 2 3 2 0 5 3 3 4 0 1 4 4 4 13 18 19 19 18 19 19 18 16 16 15 14 13 14 16 16 16 17 17 20 21 20 21 22 22 20 18 19 19 17 15 13 12 12 12 11 12 12 12 11 10 10 10 9 9 9 9 8 8 7 7 7 7 7 8 8 9 9 9 8 7 7 7 7 5 5 8 11
1 1 2 2 3 3 4 5 4 2 1 1 3 5 4 4 1 2 1 1 6 5 3 2 2 3 1 3 11 21 22 21 20 20 20 19 18 16 14 14 12 12 12 15 15 17 19 17 19 19 19 19 19 20 18 17 18 18 17 14 13 13 12 12 11 12 13 12 11 11 10 10 9 9 9 8 8 8 7 7 7 7 7 7 7 7 8 8 7 6 6 6 6 6 6 8 10
2 2 2 3 3 3 5 5 4 1 1 2 4 5 4 4 1 1 2 4 5 4 4 3 5 7 6 12 20 25 24 23 21 20 20 18 18 16 15 14 13 13 11 12 14 16 18 17 19 19 18 18 18 18 17 16 17 18 16 15 14 13 12 12 12 13 13 12 11 11 10 10 9 9 9 8 8 8 7 7 7 7 6 6 6 6 6 7 6 5 6 6 6 6 6 8 10
2 2 2 3 3 3 4 3 2 1 2 4 4 2 3 4 1 1 2 4 5 5 3 3 5 9 11 17 22 24 24 23 20 20 20 19 19 18 17 16 17 17 14 13 12 9 12 16 18 19 18 18 18 17 17 16 17 17 16 15 14 14 13 13 13 14 13 12 12 11 10 10 10 10 9 8 8 8 7 7 7 6 6 6 6 6 6 6 5 5 6 6 6 5 6 7 8
2 2 3 3 4 4 3 3 4 3 2 6 4 1 3 3 2 1 1 5 5 6 4 4 6 9 12 16 19 21 22 20 19 19 18 17 17 17 17 16 18 20 18 19 17 11 12 15 17 18 17 18 18 17 16 16 16 17 17 16 15 15 14 14 13 14 14 12 11 10 10 10 10 10 9 9 9 8 8 7 7 6 5 5 5 5 5 5 5 5 6 6 6 5 6 6 6
2 2 3 1 3 4 3 5 6 4 2 4 2 2 4 2 1 2 5 6 3 7 7 5 8 13 16 15 16 19 20 19 19 18 16 15 15 15 15 14 17 20 21 23 22 16 15 14 15 16 16 17 17 16 16 16 17 17 17 16 15 15 14 14 13 13 13 12 11 10 10 10 10 10 9 9 9 9 8 7 7 6 5 5 5 4 4 4 4 4 5 5 5 5 5 5 6
2 2 2 2 4 4 4 2 4 3 2 2 2 4 4 1 1 3 7 6 1 3 4 3 10 17 18 18 17 17 17 18 18 18 17 16 15 16 15 14 16 18 20 24 23 17 14 14 14 15 15 16 16 16 16 15 15 15 15 15 15 14 13 13 12 12 12 11 10 9 10 10 9 9 9 9 9 9 8 7 6 5 5 5 5 4 4 4 4 4 4 4 4 4 5 5 5
3 2 1 3 4 4 4 0 3 3 1 3 2 3 2 1 2 2 7 5 1 2 3 6 13 17 20 20 17 16 17 17 17 19 18 17 18 18 17 17 18 18 16 21 23 18 14 13 14 14 15 15 14 15 14 13 15 15 14 13 14 13 13 12 11 11 11 11 10 9 9 9 9 9 8 8 8 8 7 6 6 5 5 5 5 5 4 4 4 4 4 4 4 5 5 5 5
4 3 2 4 4 6 5 1 2 2 3 3 1 3 3 3 2 2 7 5 1 3 2 10 15 18 19 19 17 16 18 17 17 19 19 17 18 19 18 17 20 21 15 16 21 19 16 14 14 14 15 14 13 13 13 13 14 15 14 13 13 13 13 12 11 12 12 11 11 9 9 8 7 7 7 8 7 7 7 5 5 5 5 5 5 5 5 5 5 4 4 4 5 5 5 5 5
4 5 2 2 4 6 4 3 5 4 4 2 2 4 3 4 2 2 6 2 2 2 7 13 16 18 17 17 17 16 16 17 18 19 18 16 14 15 16 16 17 19 15 15 19 17 15 14 14 15 14 14 13 12 13 13 14 14 14 13 12 12 13 13 13 13 13 12 11 9 7 6 7 7 7 8 8 8 7 5 4 4 4 5 4 5 5 6 5 5 5 5 5 5 5 5 5
4 5 3 3 3 4 2 4 5 3 3 3 4 4 0 2 2 3 3 2 4 7 10 13 16 18 17 16 17 16 16 17 17 18 17 15 13 13 15 15 15 16 14 15 16 14 14 14 15 15 14 14 12 12 13 13 13 13 12 12 11 10 10 12 13 13 13 12 10 8 7 7 7 7 6 7 7 7 7 6 4 3 4 5 5 5 5 6 5 5 6 6 6 6 5 6 7
3 4 3 4 4 3 2 4 3 1 3 5 6 4 2 1 2 3 1 4 7 9 10 12 15 16 16 15 15 15 15 16 17 17 15 14 14 13 14 16 14 13 14 16 14 13 14 15 14 13 14 14 13 12 12 11 11 11 11 10 10 9 8 9 11 12 12 10 9 9 9 10 9 8 6 6 6 6 7 6 4 4 4 4 5 5 5 6 6 6 6 7 7 6 6 7 8
2 3 2 4 3 4 3 4 3 1 3 5 6 3 2 3 3 2 3 6 8 11 11 13 14 14 15 15 14 13 12 13 15 15 14 14 13 13 13 15 14 12 14 15 13 13 15 14 14 14 15 16 15 14 12 11 10 10 10 9 9 9 8 8 10 10 9 9 9 10 10 11 11 10 8 7 8 7 7 7 5 4 4 4 5 5 6 6 6 6 7 7 6 6 6 7 8
1 2 2 2 3 4 4 2 2 2 2 4 5 3 1 3 3 1 4 8 9 11 13 13 13 13 13 14 12 11 11 11 12 12 13 13 12 14 14 14 14 13 13 14 12 13 15 13 13 15 17 16 16 15 13 11 10 9 8 8 8 7 7 7 8 7 8 8 9 11 11 11 11 10 9 8 8 7 7 9 6 3 3 4 5 6 6 6 5 6 6 6 6 5 5 6 7
1 2 1 2 1 2 2 0 1 3 2 4 6 4 3 5 4 2 5 9 11 11 12 12 12 11 12 13 11 11 11 10 10 11 12 13 13 15 16 15 17 16 14 13 11 10 11 12 14 16 17 18 16 15 14 12 11 10 8 8 8 7 7 7 7 7 8 9 10 11 11 11 10 10 10 9 9 7 7 9 8 4 3 4 6 6 6 6 5 5 6 6 5 5 5 6 7
1 2 1 1 2 2 1 1 3 4 2 3 6 5 3 5 4 4 6 10 11 10 12 12 12 11 11 12 12 11 10 10 11 10 11 12 13 15 16 16 19 19 17 16 13 10 8 10 16 20 19 18 17 15 15 13 11 11 9 8 8 7 6 5 6 7 8 8 8 9 9 8 9 10 10 9 8 7 5 6 8 5 3 5 6 6 5 5 5 5 5 5 6 8 6 7 7
1 2 2 0 2 2 1 2 5 4 2 2 6 4 4 5 1 3 6 10 10 9 11 12 13 13 11 11 12 11 9 10 11 11 10 11 12 14 16 18 20 21 20 19 18 16 11 8 13 20 20 18 17 16 14 13 11 10 10 9 7 6 5 4 5 5 5 5 6 7 6 5 5 8 10 9 7 7 5 5 8 6 4 5 5 5 5 5 5 4 4 5 6 7 5 7 6
1 1 2 1 2 2 1 2 3 3 2 2 5 3 2 3 1 1 8 11 10 9 11 13 13 12 12 11 11 10 9 9 10 11 11 11 12 14 15 17 21 22 22 21 20 19 17 11 10 15 18 18 16 15 13 11 11 10 9 9 7 5 4 3 2 2 3 3 4 4 4 3 4 6 9 9 8 7 5 6 8 6 4 5 5 5 5 5 4 3 5 7 5 6 5 6 7
1 1 1 1 2 2 1 2 1 1 2 3 4 4 5 3 2 1 9 12 10 10 11 13 13 12 11 11 11 11 9 9 11 12 13 14 13 13 15 17 20 23 21 21 21 19 19 16 14 15 17 17 16 14 12 11 11 10 9 9 7 6 4 2 1 1 2 2 2 2 2 2 3 5 6 8 8 7 7 8 8 5 5 5 5 5 5 5 5 3 7 8 5 6 5 6 8
4 2 2 1 2 2 2 2 1 2 2 3 4 5 9 8 1 2 8 11 10 9 9 11 12 11 11 11 11 11 11 11 12 12 14 14 13 13 16 16 18 22 22 21 22 21 20 20 20 19 18 18 17 14 13 12 11 10 10 9 8 6 4 3 3 2 2 2 1 1 2 3 3 3 5 6 6 7 8 8 6 5 5 4 5 5 5 6 6 5 7 8 7 5 4 5 7
5 3 2 2 2 3 3 3 1 2 3 5 7 8 10 9 5 4 8 10 10 8 8 9 10 10 10 10 11 11 12 12 12 12 13 13 13 14 16 15 16 20 21 20 23 26 25 24 23 21 20 19 17 15 14 13 10 9 10 10 9 8 6 5 5 4 3 3 3 4 3 4 4 3 3 4 5 6 6 5 5 5 4 4 4 4 5 6 6 7 8 9 8 6 4 5 6
4 3 2 2 2 3 4 2 2 2 3 4 5 8 9 9 5 3 6 9 10 10 10 10 11 11 11 11 12 12 12 11 10 11 13 13 13 14 16 16 17 18 19 18 20 25 25 24 24 22 22 20 18 18 17 15 13 12 12 11 10 9 7 7 6 5 5 5 5 6 6 6 5 5 4 3 4 5 5 4 4 4 3 3 3 3 4 5 7 8 9 9 9 7 6 5 6
2 2 1 2 3 4 3 1 1 2 3 2 1 5 9 8 2 2 7 10 11 13 12 12 13 13 11 12 13 13 11 8 9 10 12 13 12 14 15 15 18 20 21 21 21 22 22 23 24 22 22 21 20 20 19 19 18 17 15 13 12 10 9 8 7 6 5 5 6 6 6 7 6 7 6 5 4 4 5 5 4 3 2 3 3 3 4 5 6 8 9 9 8 7 6 6 7
2 1 1 2 2 4 4 1 1 1 2 2 1 3 6 4 1 0 7 10 7 9 9 8 12 13 12 13 12 12 11 9 10 10 12 14 13 14 13 14 19 21 22 23 23 23 23 23 23 22 22 22 21 21 21 20 19 18 16 14 13 11 10 9 7 6 6 6 7 7 7 8 7 7 8 8 7 6 6 5 5 4 3 4 5 4 4 5 6 7 8 8 8 7 5 5 7
2 2 2 2 1 1 2 2 2 1 1 2 2 2 2 1 0 1 4 4 2 3 5 4 8 12 12 12 11 12 13 12 11 11 12 14 15 14 13 17 22 21 21 23 24 23 23 24 24 23 23 23 23 23 22 21 20 18 15 14 13 11 11 10 8 7 8 7 8 9 9 9 9 8 8 9 8 8 7 7 6 5 4 5 5 5 4 4 6 7 7 7 8 7 6 5 7
2 3 4 4 3 4 3 0 1 1 1 0 2 3 1 2 1 2 2 2 3 1 4 5 7 10 10 10 11 13 13 12 12 12 13 13 15 16 16 20 21 19 21 26 26 26 26 26 25 24 24 25 25 24 24 22 20 19 15 14 13 11 10 10 8 9 9 9 9 10 10 10 9 8 8 7 7 8 8 8 7 5 5 5 5 5 5 5 5 7 8 8 8 8 7 7 7
2 5 9 9 5 3 3 2 1 2 2 1 1 2 3 2 0 2 2 3 6 2 4 8 8 9 11 11 12 13 12 10 10 11 12 13 14 15 16 19 19 18 23 28 29 28 28 28 27 27 27 27 26 25 24 23 21 20 18 17 15 12 11 9 8 10 11 10 10 9 9 8 7 7 6 5 6 7 8 7 7 6 5 4 4 4 5 6 6 7 8 8 8 8 8 7 7
1 4 8 8 4 1 3 1 1 2 1 2 2 1 2 1 2 1 2 3 7 4 4 8 8 9 11 11 11 11 11 9 8 9 11 13 15 16 17 18 19 22 26 30 31 30 30 30 30 30 30 29 28 26 25 23 23 21 20 19 17 14 13 11 10 10 10 10 9 9 7 7 6 6 5 4 5 6 7 7 6 6 5 4 3 4 4 5 6 7 8 8 8 8 8 7 7
2 2 5 8 6 5 4 3 2 1 1 1 1 1 2 2 2 1 2 4 6 6 7 7 8 9 10 10 11 11 10 10 9 9 11 13 15 18 19 18 21 29 32 31 32 32 32 32 33 33 31 30 28 27 26 25 24 23 21 18 16 15 13 13 12 10 9 9 8 8 7 7 7 7 6 5 6 6 6 5 5 4 4 3 3 4 5 5 6 8 9 9 8 7 6 6 7
1 2 5 6 5 4 3 2 2 1 1 3 1 3 1 2 0 1 2 3 5 6 8 8 9 9 9 9 10 10 10 10 10 10 11 12 15 17 18 18 21 27 28 27 29 32 33 32 32 32 32 31 30 27 27 26 25 22 20 18 16 15 13 13 13 12 10 9 7 7 7 7 7 6 5 5 6 7 6 5 3 3 4 4 5 5 5 6 6 7 9 9 8 7 6 6 7
1 5 6 5 4 3 2 1 2 1 3 4 2 4 1 3 0 1 1 1 1 1 3 6 8 8 9 9 9 10 9 9 10 10 8 7 9 10 10 10 9 2 6 7 2 7 20 28 32 33 31 30 30 28 27 26 24 22 19 17 16 15 14 13 13 12 11 9 8 7 6 5 5 4 4 4 5 6 5 3 3 3 5 6 6 7 7 6 6 7 8 8 7 7 7 5 6
4 5 6 5 3 2 1 2 1 1 3 1 3 5 1 2 2 1 1 1 1 3 3 1 2 6 8 8 8 9 8 8 7 6 5 6 8 8 8 8 8 8 11 12 16 19 11 5 15 26 32 31 29 28 28 27 24 21 19 16 14 13 11 11 11 11 10 9 9 8 7 5 4 3 3 4 4 4 3 2 3 5 7 8 8 8 7 6 6 6 7 7 7 7 7 7 7
3 2 3 4 1 1 1 1 0 3 3 1 3 3 2 2 2 0 2 2 2 3 5 5 5 5 6 6 7 7 7 7 5 5 7 8 9 10 10 10 12 13 12 12 6 5 13 15 13 5 12 23 28 28 27 26 24 21 18 15 13 11 9 8 7 8 8 8 8 8 7 6 5 4 4 4 4 4 4 3 4 6 7 8 9 8 7 7 7 8 9 9 9 8 9 10 10
1 2 3 3 1 1 2 1 1 3 2 1 3 1 1 1 0 2 5 5 5 4 5 7 8 8 6 6 5 5 5 5 6 7 7 7 7 7 8 8 10 13 15 19 20 15 11 9 9 12 12 9 15 23 24 22 21 20 17 15 13 10 8 6 6 6 7 7 7 8 8 7 6 5 5 6 5 5 4 4 4 5 6 7 7 7 6 7 9 11 12 12 12 13 13 13 13
4 4 4 4 3 2 2 2 1 2 1 1 2 1 2 2 1 4 6 7 8 7 6 6 7 8 8 7 4 3 4 5 6 7 7 6 7 8 10 10 8 6 7 15 21 20 18 18 18 14 11 13 12 8 10 10 10 11 13 13 12 10 9 7 6 7 7 6 7 7 7 7 7 7 7 6 6 4 3 4 4 5 5 6 6 6 6 8 10 12 12 12 13 14 14 14 14
3 1 2 4 4 2 3 3 3 3 1 2 1 1 2 3 2 4 6 6 6 6 6 5 4 4 5 4 1 4 7 7 7 8 9 9 10 12 12 12 9 4 4 11 16 20 19 19 20 20 19 12 9 10 2 5 7 9 11 11 11 11 11 9 8 8 7 7 7 7 6 7 7 7 7 6 5 4 3 4 4 4 5 5 6 6 7 9 10 10 10 10 12 12 12 12 12
1 1 2 2 3 3 1 0 1 1 1 1 2 2 1 2 2 3 3 3 5 8 9 8 6 5 3 3 5 7 8 8 8 9 10 10 12 13 12 8 5 5 9 16 18 19 19 19 20 17 13 11 6 6 8 11 14 16 16 14 14 13 12 10 10 10 8 7 8 7 6 6 6 6 7 6 4 3 4 5 4 4 4 4 5 6 8 9 8 8 9 10 11 12 11 12 12
3 2 3 1 0 3 3 2 2 1 3 2 0 1 0 2 3 1 1 2 5 9 10 9 9 7 6 6 7 8 9 10 9 9 10 10 11 13 9 6 6 6 10 16 17 18 19 19 18 13 11 11 12 16 21 20 19 19 18 15 14 14 11 9 8 8 8 7 9 8 6 6 6 6 6 5 3 3 4 5 5 4 4 4 5 6 7 7 6 7 9 11 11 11 11 12 13
3 3 5 4 2 2 2 2 2 0 4 2 1 1 1 3 3 1 3 4 7 9 9 8 9 9 7 6 6 7 8 8 7 7 7 5 7 10 8 7 5 4 7 10 11 13 16 16 14 14 14 16 19 21 22 18 16 18 17 15 16 16 14 10 6 5 5 4 6 9 8 6 7 7 7 6 4 4 5 6 5 5 5 5 6 6 7 6 7 8 10 11 11 11 12 12 13
1 2 5 3 2 2 2 2 2 4 3 1 2 1 2 2 0 5 7 8 10 10 9 8 9 9 7 5 5 5 6 6 6 6 6 4 4 4 4 3 3 5 7 6 6 9 11 11 12 15 17 20 21 22 20 18 19 21 21 22 22 20 18 15 11 9 7 3 4 10 10 8 7 7 8 7 6 5 5 5 5 5 6 6 6 7 8 7 8 9 10 10 10 11 11 12 12
3 3 3 1 1 2 2 1 2 4 4 2 2 2 2 1 2 6 8 10 10 10 8 7 8 8 7 6 6 6 7 7 7 6 6 7 7 5 3 3 1 2 4 6 6 7 9 10 12 17 19 21 22 23 23 24 25 24 22 23 23 21 19 16 13 13 12 8 9 12 11 9 8 7 7 8 8 7 6 5 5 5 5 6 6 6 7 7 8 8 9 9 9 10 10 10 11
3 4 4 2 1 1 1 1 1 2 3 3 3 3 2 2 3 5 8 9 9 8 6 5 6 8 7 7 6 6 6 7 7 6 7 8 8 6 6 8 8 7 4 4 6 8 10 11 13 17 20 22 23 24 25 25 25 24 23 24 23 20 18 16 14 14 14 11 10 11 12 11 10 8 7 8 8 8 7 6 5 5 5 4 4 4 5 5 6 7 7 7 8 8 8 9 9
2 3 3 3 3 3 4 3 1 0 1 2 3 4 2 3 3 5 7 8 8 7 4 2 6 8 8 8 8 8 7 7 7 7 7 8 9 9 10 12 11 10 8 8 9 9 11 12 14 17 19 21 22 24 24 24 24 23 23 25 23 18 15 15 16 17 15 10 9 11 11 12 12 11 9 8 9 10 9 8 7 6 5 5 4 4 4 4 4 4 4 4 5 5 5 6 6
Wind_Direction
147 153 146 144 142 144 150 216 205 126 255 253 247 256 195 206 303 275 279 280 266 27 197 79 120 144 132 137 145 106 50 153 151 148 187 74 138 149 153 155 152 149 151 156 155 155 154 154 151 148 145 142 140 137 136 136 137 137 138 139 139 139 137 135 134 134 134 135 135 135 136 135 133 131 130 129 128 125 121 119 118 121 124 124 124 125 126 127 128 129 129 128 126 126 122 124 126
160 163 152 143 139 156 151 288 227 137 217 242 233 201 91 184 206 307 301 295 155 95 90 87 89 77 49 71 114 109 60 41 54 81 86 123 136 142 153 154 151 150 150 155 156 154 155 156 153 149 146 143 141 139 138 137 137 137 138 139 139 139 137 136 135 134 134 135 135 136 136 134 133 132 132 131 129 127 127 126 124 121 120 120 119 119 125 129 129 130 131 131 129 129 127 127 129
171 168 151 140 125 215 125 154 246 164 194 230 232 167 135 157 76 356 348 138 135 124 109 92 78 59 24 102 97 31 87 75 107 105 114 139 139 143 153 151 152 151 150 154 156 156 156 156 154 150 146 144 141 140 138 137 137 137 138 138 138 139 138 137 136 135 134 135 136 137 136 135 134 134 134 133 131 128 131 131 127 123 119 119 114 111 120 128 130 131 133 133 133 132 132 133 132
171 165 160 152 122 237 150 196 224 178 198 222 245 157 177 129 68 20 86 135 150 109 27 105 84 45 346 84 47 3 104 123 131 122 137 147 145 148 151 150 151 151 151 153 155 157 157 157 155 151 148 144 142 140 139 140 139 138 138 137 138 138 139 139 139 136 135 136 138 139 138 136 135 136 136 135 133 131 129 124 123 123 124 123 117 112 113 124 130 131 133 133 135 135 136 139 136
167 159 172 187 194 171 153 175 108 214 206 191 240 118 178 137 71 47 105 179 199 357 29 123 101 93 61 54 9 21 104 118 130 138 140 140 141 145 149 149 149 149 152 153 155 157 157 158 156 152 149 145 143 142 141 142 141 141 140 139 139 140 141 142 142 140 139 140 140 141 140 139 138 138 137 135 133 132 128 125 128 129 128 125 121 115 109 118 130 131 132 133 136 136 139 141 141
162 150 159 184 59 67 159 187 189 222 218 178 200 112 172 171 23 357 345 275 229 180 151 151 113 118 99 53 38 62 56 134 136 145 143 141 143 145 148 148 148 149 151 152 154 156 158 159 157 154 150 146 144 143 143 143 142 142 141 140 141 141 143 143 144 143 142 142 142 143 144 143 142 139 136 135 135 135 133 134 137 133 129 125 120 115 110 117 129 133 132 134 137 139 142 146 150
161 151 128 150 107 332 204 216 215 224 217 175 230 263 190 188 272 290 309 298 216 181 185 141 130 122 105 105 112 57 323 238 149 141 145 145 143 146 149 149 148 150 152 153 154 155 159 161 158 155 151 148 144 144 144 143 143 143 142 142 141 141 142 142 143 143 143 143 144 145 146 145 144 142 138 137 138 139 139 140 136 130 129 126 119 114 113 119 127 131 133 139 143 146 148 150 156
161 155 353 176 143 342 215 233 235 227 218 212 258 268 256 190 210 262 280 259 203 182 146 134 147 137 113 162 162 64 36 134 134 131 140 144 143 147 150 150 148 150 153 152 154 156 159 161 158 155 151 149 146 146 145 144 144 143 142 142 142 142 143 145 145 144 144 144 146 146 146 145 144 143 142 140 138 140 141 138 129 126 129 125 118 112 112 117 126 131 137 144 146 151 150 148 154
135 107 203 191 165 162 225 245 252 233 266 273 271 256 263 224 217 248 250 239 212 173 146 144 176 167 136 147 128 83 79 117 124 127 140 144 144 147 149 153 148 146 150 150 152 155 158 160 158 155 153 151 148 148 146 145 145 144 143 141 139 141 144 146 146 145 145 146 148 147 145 144 144 144 144 142 136 140 142 133 126 127 130 125 117 111 110 114 127 134 138 143 146 153 155 153 156
98 13 174 155 164 197 228 235 242 239 254 275 283 265 267 221 217 231 237 246 199 166 143 133 133 137 138 133 113 99 125 129 125 128 144 147 145 148 148 152 148 143 148 149 150 153 157 159 160 158 156 153 150 149 147 146 148 149 146 140 137 138 143 144 143 145 147 149 149 146 146 145 145 145 142 138 135 139 139 132 130 131 132 126 118 112 117 124 130 136 140 144 151 158 160 160 158
146 58 174 172 184 208 223 231 229 265 267 286 283 261 267 214 201 222 228 239 189 162 156 159 132 131 129 124 119 117 137 138 132 134 145 148 147 149 145 147 148 144 146 148 149 152 154 157 160 159 158 155 153 155 154 153 156 155 150 144 139 136 140 142 144 146 149 148 145 143 143 144 143 142 137 135 136 137 136 134 134 132 128 120 113 113 127 135 132 137 146 149 153 159 161 163 161
185 139 189 197 205 215 221 249 248 288 286 296 300 333 345 217 190 215 214 209 181 158 166 193 160 140 126 127 129 127 141 141 135 136 142 144 145 146 141 141 145 144 143 145 148 151 152 154 156 157 159 160 161 164 161 158 159 159 158 154 142 135 139 145 147 147 149 144 138 138 139 139 138 137 135 135 135 135 135 134 130 126 122 116 110 113 130 139 133 135 145 151 155 159 160 160 157
195 151 177 188 230 206 170 251 267 303 285 203 327 342 342 254 218 227 192 168 164 159 165 178 153 134 113 127 125 133 142 138 135 137 139 137 140 140 136 137 139 140 142 145 148 150 152 153 154 158 164 167 168 169 166 161 161 164 168 162 144 137 142 147 149 150 149 141 136 136 136 135 132 132 131 131 132 132 132 129 128 124 121 119 113 113 124 132 127 122 121 133 151 158 158 155 150
188 167 188 188 47 172 172 228 249 253 239 129 20 324 333 356 313 221 157 148 153 156 119 139 150 128 112 133 150 159 143 139 139 137 137 133 134 136 135 137 137 140 143 145 147 148 151 153 156 161 167 172 171 171 173 170 167 169 173 167 150 142 144 149 152 154 151 143 140 137 134 130 128 128 125 124 126 126 126 126 128 127 125 120 113 112 116 120 117 113 104 105 129 152 157 152 146
186 140 149 170 133 188 204 234 250 198 165 85 45 325 345 35 350 113 127 144 134 90 104 128 160 108 151 167 184 170 143 138 138 134 134 129 130 133 133 134 134 137 138 142 145 146 149 154 160 163 167 172 173 174 178 177 173 172 176 171 156 147 147 152 155 157 154 148 146 142 136 131 129 127 122 119 119 120 121 123 126 124 124 119 111 109 112 117 117 113 103 94 103 135 157 152 145
149 123 135 183 178 195 196 197 218 172 149 141 4 334 27 52 2 89 27 28 117 128 132 128 0 20 170 193 156 144 136 134 134 131 128 122 124 122 123 127 125 127 133 138 140 144 151 157 163 165 168 171 173 176 180 180 176 175 177 171 160 153 152 157 159 160 157 154 154 149 144 140 136 132 125 121 120 122 121 119 120 120 123 120 112 108 111 118 122 119 107 93 92 108 143 149 143
137 177 185 199 198 195 187 189 188 147 127 220 9 355 17 43 40 81 35 128 127 126 64 64 47 21 124 130 125 130 129 130 130 127 123 120 121 115 116 118 114 120 128 136 143 152 158 162 163 166 170 170 171 175 179 180 178 177 177 171 163 159 158 160 162 164 162 159 161 158 152 148 143 139 134 131 127 126 127 121 117 117 120 121 117 111 112 116 121 125 113 103 97 102 126 143 140
178 186 203 218 189 178 191 193 187 169 2 0 2 353 3 22 79 144 131 105 115 129 62 52 66 49 80 110 120 124 125 131 131 128 126 126 130 127 126 123 120 127 127 137 155 162 160 162 163 165 169 169 170 173 176 177 177 177 176 173 169 165 162 164 166 169 169 167 168 167 162 157 151 147 144 139 135 133 133 128 123 120 118 119 122 119 116 118 122 127 120 112 105 102 119 137 139
184 148 221 222 181 193 202 194 202 227 331 333 342 352 349 336 229 195 192 124 138 159 91 80 89 79 103 117 120 123 129 134 133 135 137 142 146 142 138 136 137 139 137 141 157 166 160 165 166 166 168 168 169 170 172 175 175 176 176 175 172 169 167 168 171 174 176 175 175 175 170 165 159 155 152 145 142 141 139 136 130 124 119 118 120 123 126 128 129 129 123 116 111 106 113 126 136
184 180 233 216 201 244 217 202 240 240 304 316 330 326 327 325 223 246 169 138 167 192 166 159 142 123 125 125 126 131 137 138 136 140 143 146 145 143 141 140 145 143 141 152 166 174 168 173 169 167 170 168 169 168 170 174 174 175 177 177 174 173 173 171 176 179 182 182 181 180 175 171 166 164 161 155 152 149 147 146 139 129 126 124 121 125 135 142 142 133 126 120 116 110 113 118 130
166 197 232 171 175 249 223 197 236 247 256 288 323 308 322 20 232 247 150 147 206 221 210 195 158 148 143 137 139 142 143 143 146 148 144 142 139 143 146 145 151 145 141 160 176 177 170 176 175 172 172 168 169 168 169 174 174 175 177 177 175 176 176 174 180 184 185 187 186 185 183 179 175 174 173 168 162 157 156 154 148 139 135 135 133 132 139 154 162 150 132 124 118 108 115 122 134
164 204 237 142 153 242 260 195 211 222 217 253 325 327 328 45 227 198 177 182 195 225 235 181 148 154 153 150 149 148 149 151 156 156 150 149 147 151 153 148 154 149 148 166 177 176 169 175 179 177 173 170 171 171 170 173 174 176 177 177 176 179 181 180 184 188 190 192 192 195 194 188 185 185 185 178 170 167 167 164 156 151 151 147 143 144 144 152 168 172 150 133 122 110 116 123 142
211 210 216 216 188 240 274 15 174 165 196 272 311 323 338 347 322 180 210 225 80 316 272 149 149 158 157 155 156 155 155 158 163 164 161 159 158 161 161 155 158 161 165 170 170 171 169 174 182 179 174 171 171 171 169 172 176 177 178 178 179 182 186 187 189 192 197 200 199 202 202 198 194 195 198 190 181 177 174 170 169 164 162 159 151 146 142 145 157 170 163 147 130 119 120 121 146
231 209 206 228 200 229 251 270 236 187 235 269 315 294 295 269 299 151 218 235 33 327 202 146 147 154 157 159 161 159 159 161 165 168 168 168 167 165 165 164 163 166 173 171 167 170 171 175 183 181 176 170 169 170 168 172 178 178 179 180 184 188 189 190 194 199 204 206 205 207 211 210 206 207 207 203 196 189 182 170 169 171 168 170 158 142 136 140 146 153 152 146 133 121 113 112 148
224 213 207 215 198 231 248 269 269 262 247 229 206 264 269 212 193 186 225 239 55 108 136 141 147 154 161 164 164 163 161 161 163 167 170 173 170 161 165 171 165 165 170 167 168 172 174 178 183 183 178 171 167 167 171 178 181 180 181 184 190 195 196 196 199 205 208 209 210 213 223 231 232 231 220 215 211 201 193 174 165 167 169 180 168 146 139 136 140 145 139 138 129 112 99 100 139
211 203 201 216 239 257 258 267 266 278 254 172 207 251 142 171 190 232 254 60 114 137 136 145 152 159 165 167 169 168 164 165 166 166 168 170 164 157 167 172 163 166 170 166 170 174 177 181 183 183 179 172 169 171 177 181 184 184 186 190 193 197 201 202 204 208 211 212 215 218 230 240 242 240 230 228 223 213 203 186 181 178 169 186 182 161 145 135 137 139 135 133 124 104 89 101 131
175 182 211 230 269 296 261 264 264 318 264 190 223 256 90 141 214 231 42 95 141 134 139 157 159 164 167 169 172 170 169 170 167 163 160 161 162 159 165 170 165 168 170 170 175 176 180 185 182 182 181 176 175 177 182 183 185 188 190 194 197 201 204 206 211 215 216 213 217 226 233 236 239 239 238 243 240 232 219 203 198 196 180 186 188 174 153 138 135 139 142 135 121 102 86 101 128
154 168 236 248 291 281 229 264 264 267 258 196 213 242 99 136 209 233 117 142 152 139 151 167 166 168 168 171 172 171 169 165 164 163 158 158 163 161 161 168 167 168 171 174 179 178 184 186 183 185 184 184 185 186 187 186 187 189 193 197 200 205 207 213 223 225 222 219 228 237 237 239 243 246 248 250 248 244 240 233 221 203 186 180 186 182 163 147 140 140 146 139 121 98 87 105 125
148 152 260 276 328 268 209 260 260 202 236 169 177 224 206 192 205 143 137 160 153 147 159 167 171 170 169 173 170 172 167 157 165 169 161 155 159 161 158 160 164 166 171 179 186 187 190 186 184 189 190 192 194 195 195 194 195 194 196 201 203 210 218 230 240 239 232 234 242 244 242 243 245 247 250 251 248 247 252 258 254 219 186 180 181 185 175 161 151 143 146 140 119 106 106 118 126
168 130 284 290 318 258 185 74 145 181 212 155 177 233 227 218 221 161 156 166 153 151 163 169 174 171 172 174 172 176 167 159 170 170 164 161 161 163 158 156 161 161 158 168 177 186 196 194 191 193 196 199 200 202 206 205 206 204 202 209 212 219 227 235 249 252 245 246 251 252 254 257 255 252 250 247 248 245 243 259 266 242 190 186 182 187 184 171 165 157 150 135 138 167 160 133 123
140 141 148 318 244 206 158 135 161 176 178 154 197 236 232 234 228 170 172 171 160 159 168 171 175 174 176 173 173 178 169 170 176 169 169 169 164 163 162 162 164 162 158 163 170 180 208 215 205 202 201 203 204 208 213 213 213 212 210 214 216 222 232 240 251 260 260 264 269 271 273 269 263 262 258 251 247 247 240 250 263 253 203 187 183 189 189 179 176 172 155 145 179 202 170 135 131
54 184 177 136 222 227 303 206 197 200 86 141 208 226 249 248 244 153 181 180 171 167 170 176 178 178 176 171 176 176 165 174 180 176 178 175 170 170 170 170 170 169 170 172 173 183 211 237 219 210 206 205 208 213 216 217 216 213 211 212 216 224 239 252 262 274 280 279 281 285 284 268 247 253 261 261 248 248 250 241 252 250 207 180 179 189 192 188 189 184 157 151 195 216 177 152 155
45 240 201 165 191 234 308 173 219 251 99 164 224 237 254 247 357 173 187 184 179 171 174 181 181 181 178 173 178 176 162 169 183 185 181 181 184 182 180 176 175 177 177 176 170 180 203 227 241 225 213 208 210 213 214 215 210 204 203 204 209 223 237 253 271 280 273 266 264 266 269 250 213 218 240 251 244 242 241 232 242 237 187 172 176 186 191 190 192 186 148 142 189 220 194 172 169
165 239 186 180 202 207 248 182 174 273 172 192 222 235 240 238 27 157 186 186 186 179 177 184 185 183 180 177 181 182 172 172 188 189 182 188 191 191 193 185 181 180 180 179 174 179 194 208 232 235 223 214 209 208 207 206 200 194 194 197 202 213 219 215 210 218 202 214 234 228 222 220 206 193 207 222 227 227 218 219 227 201 159 162 169 173 181 186 189 175 146 149 191 219 204 182 175
174 178 168 180 220 206 258 256 139 132 210 210 191 221 241 240 258 159 188 191 195 186 175 185 191 187 183 183 186 187 184 183 191 187 179 187 187 191 199 191 184 183 181 178 176 182 190 197 210 220 225 217 205 201 200 199 195 190 192 195 196 199 194 174 156 152 153 159 149 143 165 174 183 184 185 192 203 212 208 212 208 172 150 145 147 153 165 180 184 172 150 155 187 213 214 190 180
152 158 161 171 213 232 253 256 220 173 213 219 205 216 233 234 229 193 191 193 197 189 174 184 193 192 191 190 191 191 191 191 189 179 173 181 185 190 198 193 186 184 183 182 178 183 191 194 196 204 217 214 199 196 196 195 192 190 195 193 190 186 172 153 140 123 111 109 99 99 121 139 140 141 163 176 189 203 205 205 191 167 152 139 139 143 152 164 166 168 158 148 157 168 177 181 181
127 132 153 190 235 257 250 237 285 254 227 239 219 222 232 234 229 181 183 192 198 195 186 189 192 194 196 195 196 195 195 190 176 169 172 180 183 188 195 194 189 183 185 194 190 187 189 190 190 197 208 206 196 196 197 196 194 192 194 189 185 178 161 148 132 104 93 100 103 101 106 115 111 105 117 148 173 192 195 187 172 155 150 140 136 136 143 155 160 168 163 145 144 154 158 174 175
119 154 188 229 221 250 261 176 331 277 236 259 172 224 236 232 229 128 176 191 201 201 192 191 193 193 197 198 200 198 193 176 161 164 174 180 180 182 186 188 189 185 187 199 202 195 188 186 189 195 201 199 197 199 197 197 198 196 194 188 184 173 158 149 132 107 95 103 111 109 105 104 103 102 105 115 136 168 180 170 157 147 150 146 146 148 143 156 165 168 164 147 143 155 161 168 167
125 151 228 244 204 257 276 140 91 245 226 253 169 222 246 242 302 230 198 197 208 212 204 201 193 192 198 200 200 198 191 175 165 171 175 180 181 174 171 181 189 190 191 198 203 198 190 187 190 195 198 198 199 200 197 196 196 197 196 189 184 175 161 149 129 115 108 108 110 108 106 104 104 104 104 109 118 136 156 159 156 152 142 141 144 146 145 157 171 175 174 162 148 150 156 164 172
166 170 214 242 180 230 237 135 86 64 337 284 176 180 280 322 38 196 208 215 262 237 215 219 202 201 204 202 203 200 195 184 169 173 176 179 181 171 172 188 191 189 191 196 200 197 192 191 193 196 199 198 198 199 196 194 193 195 196 190 183 173 158 148 132 122 116 114 111 106 106 106 105 106 105 109 114 121 131 134 136 136 128 131 135 144 157 168 180 186 189 179 159 153 158 170 186
206 209 214 238 228 212 229 0 45 132 64 338 167 151 106 37 180 153 112 219 249 244 200 203 206 209 205 199 206 206 202 192 174 176 176 176 181 176 182 195 191 186 190 193 197 197 194 196 198 198 199 199 197 196 194 194 192 190 188 182 177 164 153 150 141 132 127 122 117 112 109 105 101 98 96 102 111 114 116 115 113 113 112 121 133 151 166 172 183 188 189 189 182 173 165 167 184
218 218 215 228 230 210 242 328 18 196 162 122 232 180 139 47 197 159 60 208 210 207 206 206 198 200 202 200 207 207 205 201 184 177 172 173 179 177 185 196 190 189 194 194 196 198 198 200 201 200 199 198 195 194 194 194 194 191 185 177 172 165 157 158 152 144 139 130 122 119 112 104 98 94 91 98 114 116 114 113 111 112 115 123 142 156 165 170 177 181 181 184 187 182 169 161 170
214 214 207 213 220 225 244 256 224 221 154 86 318 243 150 93 131 121 353 217 197 197 213 214 200 196 203 204 206 205 201 201 192 178 172 175 177 177 188 196 194 196 198 197 197 199 201 203 202 199 197 195 193 193 195 196 195 193 190 184 179 173 164 160 161 153 145 137 128 125 116 110 109 108 110 119 128 124 117 116 116 122 127 131 152 163 162 163 167 170 170 171 175 175 170 164 165
191 186 173 175 193 217 215 196 199 266 19 124 340 335 151 143 133 117 288 199 183 202 212 216 214 205 205 203 201 202 199 196 192 184 180 180 179 181 189 194 198 202 202 199 200 201 203 203 201 197 194 193 193 194 197 199 198 195 192 188 178 171 165 159 160 157 147 140 130 124 117 116 117 115 117 126 141 141 125 114 116 129 135 128 139 154 157 156 157 164 166 168 170 171 172 170 170
255 139 143 152 174 190 168 172 166 38 258 189 84 0 174 151 82 289 247 183 172 201 209 213 220 214 207 206 202 201 201 198 194 193 190 185 183 184 188 195 202 207 207 204 202 201 200 199 197 194 192 192 193 197 199 200 200 197 194 189 174 163 161 156 156 155 148 142 132 123 117 117 118 117 116 121 139 143 126 104 96 124 142 134 129 136 142 146 151 161 167 173 176 173 172 168 166
151 134 108 93 90 91 106 152 129 99 239 204 50 353 215 151 179 300 61 110 144 255 220 208 221 225 215 209 206 204 200 200 200 199 192 172 167 174 184 191 192 187 13 14 351 210 200 197 194 190 190 192 194 196 198 198 198 197 196 191 177 163 158 155 152 150 147 143 137 129 122 120 115 115 120 123 133 133 123 111 89 111 139 135 130 133 135 141 149 160 168 176 179 173 169 163 153
155 147 101 92 75 49 75 41 49 177 221 202 27 347 296 156 171 206 95 73 345 320 316 265 237 239 229 216 209 206 199 199 198 184 150 119 127 148 158 156 132 78 39 23 13 7 353 250 200 190 188 190 194 196 196 196 195 196 196 192 182 169 162 161 159 156 153 148 142 137 134 133 123 119 126 125 128 123 115 115 101 113 133 135 131 132 133 133 136 144 153 160 166 168 166 156 143
162 156 116 130 76 26 100 32 322 201 200 71 28 350 278 198 159 94 316 324 329 300 306 323 318 280 254 239 222 210 201 191 170 142 132 129 135 145 145 140 136 139 157 172 172 354 345 341 340 308 201 192 192 194 196 196 195 194 195 191 185 179 175 175 176 172 166 156 146 141 139 138 129 126 132 127 126 123 110 103 109 123 132 136 134 130 125 120 117 121 127 130 134 141 147 145 140
180 136 141 166 157 154 196 212 211 216 218 40 24 345 250 208 107 314 311 328 345 326 304 305 306 301 287 266 241 212 191 168 150 140 138 136 134 126 119 120 128 139 155 166 175 193 215 240 291 324 321 273 211 196 197 198 195 193 191 188 186 185 186 190 195 188 174 163 154 147 140 138 132 127 135 135 129 124 115 111 121 128 129 132 135 132 127 121 117 117 116 117 120 124 129 133 134
189 162 161 175 156 153 191 187 221 249 229 64 15 299 197 139 84 305 311 331 341 332 314 299 289 287 284 280 265 182 150 143 138 128 119 111 96 84 73 67 74 97 159 178 181 188 196 200 210 224 253 288 297 254 207 189 177 175 177 181 184 186 190 195 201 194 178 166 159 152 142 136 135 134 139 141 133 122 118 124 131 132 130 134 138 136 131 126 123 121 117 117 118 120 124 128 131
180 152 154 177 170 174 206 199 197 210 170 88 106 212 192 142 127 315 314 325 343 350 343 333 307 285 275 283 298 122 122 122 122 115 110 102 93 90 81 70 64 49 276 233 200 188 192 198 206 209 206 223 291 317 282 154 147 153 164 181 190 192 195 195 193 187 179 172 164 156 148 139 138 143 147 145 136 125 124 136 143 143 143 143 142 139 135 133 131 128 125 124 124 126 130 132 134
131 91 146 186 190 157 138 154 176 199 164 138 184 216 305 116 137 318 325 352 17 20 13 9 6 8 51 83 93 108 115 118 121 118 113 111 111 109 105 109 141 188 231 241 222 197 194 202 208 207 189 179 202 262 242 203 186 178 176 188 195 193 192 189 182 175 171 174 171 164 159 154 151 156 158 153 145 135 135 145 154 157 153 145 141 141 140 140 139 136 135 132 131 134 135 134 134
134 177 176 176 67 119 117 115 41 352 201 178 142 247 257 141 158 187 109 72 41 25 17 21 20 24 54 77 97 116 124 127 131 130 126 132 130 119 123 168 195 203 220 232 225 203 198 205 203 184 162 167 190 225 233 218 195 179 173 179 185 182 176 171 171 171 167 170 180 182 177 174 175 176 175 169 161 148 139 144 150 148 145 136 135 143 147 147 144 139 136 131 130 133 132 130 130
141 183 164 131 66 81 112 151 93 179 206 187 66 339 253 179 165 46 4 7 14 9 9 25 30 32 50 66 95 114 117 118 113 105 108 120 124 124 152 197 211 223 231 233 226 212 206 205 188 166 174 195 202 210 215 203 177 164 166 179 186 177 158 141 138 162 157 144 183 200 196 190 191 192 194 191 184 169 147 140 138 130 122 116 119 128 135 137 133 130 128 124 125 126 124 122 123
45 149 137 133 189 164 150 162 156 181 197 172 141 206 272 206 93 352 337 338 347 348 355 22 32 29 38 49 65 65 54 52 48 55 67 57 61 101 153 203 245 256 263 266 245 224 215 204 182 177 191 202 198 192 191 189 179 173 180 190 190 178 158 145 144 160 163 151 214 220 211 201 196 197 202 202 196 184 162 144 134 122 112 108 111 116 119 120 120 121 119 118 119 121 120 117 117
57 119 124 38 281 169 165 158 167 187 186 158 157 193 218 172 3 325 309 322 333 331 339 12 34 34 32 33 37 38 40 42 43 52 65 66 57 50 67 85 84 268 272 265 244 223 212 199 184 185 191 190 186 183 184 188 185 182 188 190 186 180 171 168 167 170 182 202 224 227 219 211 202 197 202 203 201 196 178 158 140 125 114 106 102 110 117 114 110 112 113 114 117 119 119 117 118
129 157 161 148 76 108 165 104 48 196 176 156 171 193 180 84 6 311 304 318 321 310 314 355 43 53 45 37 37 38 47 56 57 61 70 75 74 68 67 75 77 78 94 167 188 192 193 185 177 181 185 183 182 181 182 186 185 188 196 195 190 186 185 188 190 190 201 215 227 232 226 219 211 200 200 202 203 203 191 178 167 151 138 127 116 116 120 116 110 111 113 116 121 124 123 124 126
177 175 178 160 130 146 170 168 154 352 165 164 180 189 153 51 354 322 321 321 319 311 296 39 65 70 63 51 49 45 46 55 58 61 65 64 59 51 50 54 60 68 79 108 137 156 165 167 171 176 179 179 180 182 184 188 189 195 203 199 192 190 193 195 196 206 223 236 244 247 237 226 218 207 204 205 204 203 197 191 188 184 180 173 168 158 143 135 128 122 119 119 127 135 134 130 131